Simultaneous Nadir Overpasses (SNOs) Predictions

Prediction of SNOs between LANDSAT-8 and NOAA-19 Satellite Orbit:

Table of predicted SNOs for the next 14.0 days since TLE Epoch: 2/2/2017
Index Date (LANDSAT-8) Time (LANDSAT-8) Lat,Lon (LANDSAT-8) SZA (LANDSAT-8 ) Date (NOAA-19) Time (NOAA-19) Lat,Lon (NOAA-19) SZA (NOAA-19 ) Distance(km) Time Diff (sec)
1 02/04/2017 12:11:49 75.73, 4.42 91.75 02/04/2017 12:10:37 75.71, 4.48 91.74 2.31 72
2 02/04/2017 13:01:18 -75.65, 171.83 88.35 02/04/2017 13:01:38 -75.64, 171.96 88.35 3.55 20
3 02/06/2017 17:45:33 -75.71, 100.94 88.95 02/06/2017 17:44:33 -75.73, 100.98 88.93 2.84 60
4 02/06/2017 18:35:00 75.64, -91.62 90.97 02/06/2017 18:35:31 75.66, -91.51 90.99 3.68 31
5 02/08/2017 23:19:14 75.74,-162.39 90.38 02/08/2017 23:18:26 75.73,-162.42 90.37 1.98 48
6 02/09/2017 00:08:43 -75.67, 5.03 89.71 02/09/2017 00:09:26 -75.66, 5.05 89.72 1.21 43
7 02/11/2017 04:52:58 -75.73, -65.88 90.37 02/11/2017 04:52:20 -75.72, -65.80 90.38 2.41 38
8 02/11/2017 05:42:25 75.65, 101.55 89.55 02/11/2017 05:43:20 75.68, 101.57 89.58 3.56 55
9 02/13/2017 10:26:39 75.75, 30.76 88.91 02/13/2017 10:26:14 75.72, 30.79 88.88 3.68 25
10 02/13/2017 11:16:08 -75.68,-161.80 91.17 02/13/2017 11:17:14 -75.70,-161.90 91.15 3.31 66
11 02/15/2017 16:00:23 -75.73, 127.26 91.88 02/15/2017 16:00:07 -75.72, 127.38 91.88 3.46 16




NCC Satellite Simultaneous Nadir Overpasses (SNOs) Prediction Service
